Flag for South Korea Weather past 2 weeks in Gunsan, South Korea

Now
61 °F

Fog.


Feels Like: 61 °F
Forecast: 61 / 80 °F
Wind: 9 mph from North

Location: Kunsan Ab

Current Time: May 31, 2015 at 12:04:41 AM

Latest Report: May 30, 2015 at 10:58 PM


Visibility: 2 mi

Pressure: 29.74 "Hg

Humidity: 100%

Dew point: 61 °F

Location of GunsanLocation

Historic Weather in Gunsan — Graph

°F

Gunsan temperature yesterday

Maximum temperature yesterday: 71 °F (at 3:58 PM)
Minimum temperature yesterday: 61 °F (at 9:58 PM)
Average temperature yesterday: 65 °F

Past Weeks' High & Low Weather Summary

 TemperatureHumidityPressure
High81 °F (May 29, 2:58 PM)100% (May 15, 10:58 PM)30.02 "Hg (May 15, 10:58 PM)
Low52 °F (May 17, 5:58 AM)30% (May 16, 3:58 PM)29.62 "Hg (May 18, 3:58 PM)
Average64 °F74%29.83 "Hg
* Reported May 15 10:58 PM — May 30 10:58 PM, Gunsan, Weather by CustomWeather, © 2015

Note: Actual official high and low records may vary slightly from our data, if they occured in-between our weather recording intervals... More about our weather records

Advertising

Gunsan weather history for previous 24 hours

 ConditionsComfort  
Time TempWeatherWind HumidityBarometerVisibility
10:58 PM
Sat, May 30
61 °FFog.9 mph100%29.74 "Hg2 mi
9:58 PM61 °FFog.12 mph100%29.73 "Hg6 mi
8:58 PM62 °FClear.8 mph98%29.70 "Hg9 mi
7:58 PM63 °FClear.9 mph93%29.68 "Hg9 mi
6:58 PM64 °FSunny.13 mph88%29.66 "Hg10 mi
3:58 PM71 °FScattered clouds.6 mph75%29.65 "Hg7 mi
2:58 PM70 °FBroken clouds.8 mph79%29.66 "Hg8 mi
1:58 PM66 °FFog.9 mph91%29.69 "Hg6 mi
12:58 PM65 °FFog.13 mph91%29.70 "Hg6 mi
11:58 AM66 °FHaze.10 mph86%29.71 "Hg6 mi
10:58 AM66 °FFog.3 mph90%29.70 "Hg4 mi
9:58 AM65 °FFog.2 mph92%29.71 "Hg5 mi
8:58 AM64 °FFog.5 mph95%29.71 "Hg5 mi
8:00 AM63 °FLight rain. Fog.5 mph94%29.71 "Hg5 mi
5:58 AM63 °FLight rain. Fog.3 mph93%29.71 "Hg4 mi
4:58 AM65 °FLight rain. Passing clouds.3 mph93%29.73 "Hg8 mi
3:58 AM66 °FPassing clouds.1 mph88%29.72 "Hg10 mi
2:58 AM64 °FLight rain. Partly cloudy.6 mph89%29.70 "Hg7 mi
1:58 AM68 °FClear.No wind69%29.72 "Hg10 mi
12:58 AM69 °FPassing clouds.3 mph59%29.73 "Hg10 mi
Weather by CustomWeather, © 2015

See weather overviewHow to use our weather pages